User: anonymous   Login
Location: Tyler Bend Campground
(35.9875°N, 92.7606°W)
Time: 13:11:28
(UTC-05:00)
Language:

CZ-2C R/B - Orbit

View from above orbital plane
View from above orbital plane
View from above satellite
View from above satellite

Ground track
Ground track

The orbit data is extracted from the following two-line orbital elements,

1 36089U 09061B   17268.92823155 +.00000094 +00000-0 +34474-4 0  9990
2 36089 098.0569 266.2791 0083343 095.3517 281.4969 14.49684667416217
Epoch (UTC): 25 September 2017 22:16:39
Eccentricity: 0.0083343
inclination: 98.0569°
perigee height: 667 km
apogee height: 786 km
right ascension of ascending node: 266.2791°
argument of perigee: 95.3517°
revolutions per day: 14.49684667
mean anomaly at epoch: 281.4969°
orbit number at epoch: 41621

The dashed part of the orbit path shows where the satellite is in the earth's shadow,  

DLR